User: anonymous   Login
Location: Arbon
(43.0005°N, 0.7472°E)
Time: 16:23:09
(UTC+00:00)
Language:

Meteor 2-13 Rocket - Orbit

View from above orbital plane
View from above orbital plane
View from above satellite
View from above satellite

Ground track
Ground track

The orbit data is extracted from the following two-line orbital elements,

1 16409U 85119B   20292.94045490 +.00000009 +00000-0 -54586-5 0  9997
2 16409 082.5334 108.4464 0014496 196.8802 163.1878 13.84813942759358
Epoch (UTC): 18 October 2020 22:34:15
Eccentricity: 0.0014496
inclination: 82.5334°
perigee height: 936 km
apogee height: 957 km
right ascension of ascending node: 108.4464°
argument of perigee: 196.8802°
revolutions per day: 13.84813942
mean anomaly at epoch: 163.1878°
orbit number at epoch: 75935

The dashed part of the orbit path shows where the satellite is in the earth's shadow,  

DLR